Home   Weather   Amstetten   Past weeks

Flag for Austria Past Weather in Amstetten, Lower Austria, Austria — Yesterday and Last 2 Weeks

Now
23 °F

Cold.


Feels Like: N/A
Forecast: 22 / 38 °F
Wind: N/A

Location: Linz / Hoersching-Flughafen

Current Time: Dec 4, 2016 at 4:58:59 am

Latest Report: Dec 4, 2016 at 4:00 am


Visibility: 16 mi

Pressure: 30.40 "Hg

Humidity: 90%

Dew Point: 20 °F

Location of AmstettenLocation

Past Weather in Amstetten — Graph

°F

Amstetten Temperature Yesterday

Maximum temperature yesterday: 35 °F (at 3:00 pm)
Minimum temperature yesterday: 23 °F (at 9:00 am)
Average temperature yesterday: 27 °F

High & Low Weather Summary for the Past Weeks

 TemperatureHumidityPressure
High58 °F (Nov 21, 3:00 pm)100% (Nov 20, 10:00 pm)30.62 "Hg (Nov 20, 10:00 pm)
Low20 °F (Nov 30, 8:00 am)45% (Nov 28, 1:00 pm)29.74 "Hg (Nov 21, 3:00 pm)
Average38 °F86%30.15 "Hg
* Reported Nov 19 3:00 am — Dec 4 3:00 am, Amstetten, Weather by CustomWeather, © 2016

Note: Actual official high and low records may vary slightly from our data, if they occured in-between our weather recording intervals... More about our weather records

Advertising

Amstetten Weather History for the Previous 24 Hours

Scroll right to see more
 ConditionsComfort  
Time TempWeatherWind HumidityBarometerVisibility
3:00 am
Sun, Dec 4
22 °FCold.N/A87%30.40 "Hg17 mi
2:00 am24 °FCold.N/A86%30.40 "Hg19 mi
1:00 am24 °FCold.N/A88%30.39 "Hg22 mi
12:00 am25 °FChilly.N/A84%30.39 "Hg22 mi
11:00 pm
Sat, Dec 3
26 °FPassing clouds.N/A82%30.37 "Hg19 mi
10:00 pm27 °FPassing clouds.5 mph83%30.37 "Hg14 mi
9:00 pm26 °FPassing clouds.N/A86%30.36 "Hg14 mi
8:00 pm28 °FPassing clouds.N/A88%30.34 "Hg12 mi
7:00 pm28 °FPassing clouds.N/A88%30.34 "Hg9 mi
6:00 pm29 °FPassing clouds.3 mph89%30.33 "Hg9 mi
5:00 pm29 °FPassing clouds.5 mph86%30.33 "Hg9 mi
4:00 pm32 °FPassing clouds.3 mph79%30.31 "Hg18 mi
3:00 pm35 °FSunny.3 mph70%30.30 "Hg25 mi
2:00 pmN/APassing clouds.12 mphN/AN/A7 mi
1:00 pm31 °FPassing clouds.3 mph94%30.31 "Hg13 mi
12:00 pm29 °FPassing clouds.N/A96%30.33 "Hg6 mi
11:00 am26 °FScattered clouds.N/A100%30.35 "Hg2 mi
10:00 am24 °FLow clouds.N/A98%30.35 "Hg0 mi
9:00 am23 °FLow clouds.N/A98%30.34 "Hg0 mi
8:00 amN/APassing clouds.17 mphN/AN/A3 mi
7:00 am23 °FIce fog.N/A98%30.31 "Hg0 mi
6:00 am24 °FIce fog.N/A98%30.30 "Hg0 mi
5:00 am24 °FLow clouds.N/A98%30.29 "Hg0 mi
4:00 am25 °FLow clouds.N/A98%30.29 "Hg0 mi
Weather by CustomWeather, © 2016

See weather overviewHow to use our weather pages